Theta_e
329 333 327 327 327 326 325 324 321 323 324 323 319 318 323 325 316 314 325 330 325 328 332 331 332 334 333 332 333 333 333 334 333 335 335 335 339 345 351 356 359 360 362 363 363 364 363 361 361 360 359 359 359 359 360 359 359 359 359 361 361 363 364 364 366 366 365 366 366 365 363 363 364 362 360 359 358 358 361 364 364 362 362 362 365 367 367
328 329 327 327 326 325 326 326 324 325 325 324 322 323 326 327 322 324 330 329 327 332 332 330 333 333 331 332 332 331 332 332 332 334 334 332 331 336 345 355 361 360 361 364 366 366 366 363 361 360 359 359 358 359 359 358 358 358 357 360 361 362 363 365 366 366 366 366 367 366 364 364 365 364 362 360 360 360 361 362 363 364 363 363 364 366 367
323 326 327 327 325 324 323 323 327 326 325 325 324 324 326 325 323 328 332 329 329 332 333 333 334 334 334 333 332 333 332 332 332 332 331 332 333 334 336 345 357 362 361 363 366 369 368 368 363 361 360 359 358 357 358 357 358 357 357 358 361 361 362 364 365 367 367 367 368 368 366 365 367 367 364 363 362 361 361 362 363 364 364 363 364 365 366
320 323 324 324 324 325 321 320 325 326 322 322 324 326 326 325 324 325 326 325 329 334 334 334 334 333 334 333 333 332 332 330 332 332 331 333 334 335 334 336 344 355 358 361 366 366 363 364 363 360 360 360 359 357 357 356 358 357 356 357 360 361 363 364 365 367 368 368 368 369 368 367 367 368 367 365 364 363 363 363 363 364 365 365 364 363 365
319 321 323 322 321 321 317 319 324 326 326 326 326 327 329 328 328 326 323 326 334 336 335 333 334 332 331 332 332 332 333 333 334 334 334 334 333 334 337 336 335 341 348 354 361 358 356 358 360 359 359 358 359 358 357 356 357 356 356 356 359 362 363 363 366 368 369 369 369 369 370 369 368 369 368 366 365 365 365 364 364 365 365 366 365 364 365
318 319 321 321 319 317 320 324 326 327 327 327 326 326 328 329 329 328 328 332 333 334 333 332 332 332 332 335 334 333 334 334 335 335 334 336 336 336 336 335 336 341 344 347 353 353 351 347 349 352 356 357 358 356 357 356 356 357 356 357 358 362 364 364 366 369 371 370 370 371 371 370 369 368 368 367 366 365 366 365 364 366 366 367 366 366 365
317 318 319 318 317 318 323 326 327 326 327 327 327 327 328 327 327 328 328 330 331 333 333 333 333 334 334 334 334 334 333 333 334 334 335 337 337 336 335 341 350 356 356 354 353 354 352 349 346 347 349 353 356 357 357 356 356 358 359 358 359 362 365 365 365 369 372 372 371 371 372 371 370 369 369 369 368 366 366 366 365 366 367 367 367 366 366
319 318 317 318 320 323 324 327 328 327 328 327 325 324 325 327 328 328 328 328 329 331 331 332 335 335 336 337 339 338 335 333 331 330 331 332 332 334 337 345 354 359 360 358 356 357 357 353 348 346 346 349 353 356 357 356 356 359 361 360 361 362 365 366 366 369 372 373 373 372 372 372 371 370 370 371 369 367 367 366 367 367 367 367 367 366 367
320 317 316 318 321 322 325 327 329 329 329 328 326 322 325 328 328 329 331 333 333 334 335 334 337 340 342 342 339 334 330 330 332 333 334 334 334 340 346 350 355 359 361 362 361 361 362 358 352 349 346 345 349 353 356 356 357 358 359 361 362 362 365 366 367 369 371 372 373 372 372 373 372 370 371 371 370 369 367 367 367 367 366 366 365 365 365
319 317 316 318 318 319 322 325 327 329 328 328 330 326 326 331 331 330 335 338 339 339 337 336 341 346 344 337 333 336 341 342 344 348 350 347 348 352 354 354 357 359 362 366 365 364 364 361 357 356 352 348 349 354 356 356 358 358 360 361 361 362 363 367 368 370 372 372 373 373 372 373 373 371 370 371 371 370 368 367 367 366 366 366 364 364 364
317 317 316 318 316 318 324 326 327 329 329 331 333 327 325 333 336 335 336 337 337 337 338 342 348 347 338 329 333 346 350 349 349 353 355 353 352 354 354 353 357 361 364 367 366 363 361 360 360 360 359 356 353 353 356 357 358 359 360 361 361 360 363 366 369 371 372 373 373 373 373 373 372 372 371 370 371 370 369 368 366 366 366 366 366 366 365
318 317 317 317 317 320 327 327 326 328 329 331 330 323 325 337 341 338 337 337 338 342 345 347 348 344 335 332 340 349 348 345 349 353 355 354 351 352 352 356 360 360 362 365 367 365 365 367 365 363 361 358 355 356 357 357 357 360 359 359 361 362 362 365 369 370 371 372 373 373 373 373 372 372 371 370 370 370 369 368 366 366 366 366 365 366 365
316 316 316 316 318 322 326 328 328 329 327 327 326 325 332 344 342 339 340 340 340 343 345 346 346 345 342 341 344 345 344 345 348 349 350 352 353 351 354 359 361 360 360 365 366 364 365 368 366 364 363 360 357 356 358 357 357 358 360 360 362 363 363 363 367 370 371 371 373 373 373 372 371 370 370 370 370 369 369 368 367 367 367 365 365 366 365
315 316 316 315 318 322 325 325 326 325 324 327 330 334 339 342 340 339 339 339 341 344 345 346 346 344 343 343 343 344 345 346 348 347 348 350 352 352 355 359 360 360 362 365 365 363 365 365 364 363 362 361 359 359 359 359 358 357 360 362 363 364 366 364 366 368 370 371 372 373 372 372 371 370 368 368 369 369 369 368 367 368 368 367 366 366 365
314 315 316 316 319 324 324 322 325 328 328 330 334 336 336 336 337 338 338 339 341 344 344 344 344 343 343 344 344 345 346 347 348 348 348 350 352 353 356 358 358 359 360 363 363 363 362 365 367 367 363 361 362 361 359 361 359 357 359 362 364 366 366 365 366 366 368 371 371 370 370 371 370 370 369 368 369 369 369 368 368 368 368 368 366 366 366
314 313 315 319 321 323 323 323 325 328 330 330 330 331 333 336 337 339 340 340 340 342 343 343 343 343 344 345 345 346 346 346 347 348 349 351 352 353 355 357 356 356 360 362 362 362 362 363 367 369 368 363 363 364 366 367 365 362 360 361 364 365 365 366 366 365 366 369 370 370 371 370 371 371 369 369 369 370 370 369 368 368 368 367 367 366 365
317 316 318 320 321 321 321 322 323 324 325 325 325 327 332 335 336 337 339 340 340 342 342 342 342 343 344 343 344 345 345 344 346 347 349 350 351 352 355 356 355 356 358 359 359 360 361 361 363 367 369 368 368 370 371 370 369 367 364 363 367 367 367 369 367 366 366 368 370 370 371 370 370 371 370 369 369 369 368 367 367 367 367 366 366 367 365
318 318 318 319 320 321 321 321 321 321 321 322 323 325 327 330 332 334 336 338 340 342 341 342 342 343 343 344 344 344 345 346 347 347 348 350 351 352 354 355 355 357 357 357 357 358 358 358 360 362 363 365 367 368 367 367 369 368 367 367 369 369 370 371 369 367 367 369 370 371 370 370 370 369 369 369 368 367 367 366 365 367 365 364 365 366 365
316 317 318 319 320 320 320 319 319 320 320 321 322 323 325 328 330 331 334 335 338 340 342 343 343 343 344 345 345 346 347 347 347 348 349 350 351 352 353 355 355 356 357 358 357 358 357 358 359 359 360 361 362 362 363 365 367 368 367 367 367 367 368 369 369 369 368 367 369 369 369 370 368 367 367 367 367 366 366 365 365 366 365 364 365 365 364
315 316 317 317 317 318 317 317 318 319 319 321 323 323 324 325 327 329 332 333 334 337 340 343 342 343 343 344 345 345 346 347 347 348 349 350 351 352 353 353 354 355 357 357 356 357 357 357 357 358 359 360 360 362 363 364 365 367 367 366 367 368 368 368 368 368 368 368 368 368 368 368 367 367 367 366 365 365 365 365 365 364 364 365 364 363 363
314 314 315 315 315 316 316 316 317 318 319 322 322 322 322 323 323 326 329 330 332 333 337 341 342 343 344 344 343 344 345 346 346 348 349 350 351 352 353 352 352 352 353 354 355 355 356 356 355 356 357 358 359 361 362 363 365 365 365 365 366 367 367 366 367 367 367 366 366 366 367 366 365 366 365 365 365 364 364 365 365 364 365 364 365 365 365
313 313 314 315 315 315 316 316 317 318 319 320 321 321 322 323 323 323 324 327 328 329 332 337 341 343 344 344 343 344 345 345 345 346 349 351 352 353 351 350 351 350 351 352 353 352 352 353 353 354 355 355 356 356 358 361 364 364 366 366 366 366 366 366 365 364 365 364 364 365 365 363 363 364 363 363 364 364 363 365 364 363 363 364 363 363 363
313 313 314 315 315 316 316 317 317 318 318 318 319 320 321 321 322 322 323 325 328 328 329 333 338 343 344 343 344 344 345 345 345 346 347 349 352 352 351 350 351 351 350 351 351 350 350 351 350 351 352 352 353 354 355 357 359 361 362 363 364 364 366 365 364 363 364 365 364 365 364 363 363 364 363 363 362 362 360 361 361 361 360 360 360 360 360
313 313 314 314 314 315 315 316 316 317 317 318 318 319 319 320 320 321 321 323 326 328 329 331 336 341 343 342 343 344 344 344 346 346 346 347 349 350 351 351 352 352 352 351 351 351 351 351 351 351 351 350 350 351 352 353 355 357 357 358 358 359 360 359 360 360 361 362 361 361 362 362 362 362 362 362 362 363 361 359 357 357 356 355 356 356 356
313 313 314 314 314 314 315 315 316 316 316 317 317 318 318 319 320 320 321 322 325 328 329 330 335 340 342 342 343 345 344 345 345 346 346 347 348 349 350 350 351 352 352 351 351 350 350 350 350 350 350 349 349 349 350 352 353 354 354 354 355 356 356 357 357 357 357 358 359 358 359 359 359 358 359 358 359 360 359 356 352 350 350 349 349 348 349
313 314 314 314 313 314 315 315 315 315 316 316 317 317 318 319 320 320 321 323 326 327 327 329 335 341 342 342 343 344 344 344 345 345 346 346 347 348 348 349 349 349 350 349 350 349 348 348 348 349 348 348 348 347 349 350 352 353 352 351 351 353 356 356 356 356 356 356 355 356 356 356 355 355 355 354 353 352 352 351 350 351 350 349 347 346 345
313 313 314 314 314 315 314 315 315 315 315 316 317 317 318 319 320 320 321 324 327 327 327 330 336 340 342 344 344 344 344 344 344 344 345 346 346 346 347 347 347 347 346 346 346 346 346 346 346 346 347 348 348 347 348 348 350 353 353 351 351 351 352 353 354 354 352 352 352 352 352 352 351 351 350 349 349 348 348 348 349 350 350 349 348 346 343
314 314 314 314 314 315 315 315 315 315 316 316 316 317 318 319 319 320 322 325 328 328 329 332 336 338 340 343 344 343 343 342 342 342 343 344 344 344 345 345 344 344 345 345 345 344 344 344 344 344 345 346 347 346 347 347 349 350 350 350 350 350 351 351 351 351 350 350 348 347 349 349 349 349 349 347 346 347 347 348 349 349 349 348 347 344 342
314 314 314 314 315 315 315 315 315 315 315 316 316 317 317 318 319 320 321 324 328 329 329 332 336 337 340 343 343 342 341 341 341 341 342 342 342 343 343 343 342 342 343 343 343 343 343 342 342 342 342 343 344 345 346 346 346 347 347 347 346 347 349 349 349 349 349 348 345 345 347 348 348 348 347 346 347 346 347 348 347 347 346 345 344 343 341
314 315 315 315 315 315 315 315 315 315 315 315 316 316 317 317 318 319 320 324 328 329 329 332 335 336 338 341 342 342 341 341 340 340 340 340 341 341 341 341 341 341 341 342 341 341 342 341 341 341 340 340 342 343 344 344 345 345 346 345 344 343 344 345 347 348 348 347 346 346 346 346 346 345 345 345 346 346 346 347 346 344 343 344 342 340 338
315 315 316 316 315 315 316 316 316 316 316 315 316 317 318 318 319 320 321 325 328 329 329 331 333 334 335 338 339 339 340 340 339 339 339 339 339 339 339 339 340 340 340 340 340 340 340 340 340 340 340 339 339 341 342 343 343 344 345 345 344 342 341 342 344 344 345 346 345 345 345 345 345 345 344 344 344 344 345 346 345 343 342 342 340 337 334
316 316 316 316 315 315 316 316 317 317 316 316 316 318 319 319 320 321 324 327 328 329 330 332 333 333 334 335 336 337 337 337 337 338 338 338 338 338 338 338 338 338 338 338 339 338 339 339 338 339 339 339 338 338 340 341 342 342 343 344 344 342 341 342 343 342 342 343 344 344 344 344 343 343 343 343 343 344 344 343 343 343 341 340 338 335 332
318 318 317 317 318 318 318 317 318 317 317 316 317 318 319 319 320 323 328 329 329 329 330 332 333 333 332 332 333 334 335 335 335 336 336 336 336 336 336 336 337 336 336 336 337 337 337 337 337 337 337 338 338 338 339 340 341 342 342 343 343 342 342 342 343 343 343 342 343 344 343 343 342 343 343 343 343 343 343 342 342 341 340 339 338 336 333
319 319 319 319 320 320 320 318 318 317 317 317 317 318 320 320 322 327 331 331 329 329 330 332 332 332 332 332 331 331 332 333 333 334 335 336 335 335 335 334 334 334 334 334 334 334 335 335 336 336 335 336 337 338 338 339 339 339 340 340 340 340 341 341 341 342 342 342 342 343 342 342 342 341 342 343 343 342 343 343 342 341 339 339 338 337 336
322 322 321 321 322 321 321 320 318 318 318 318 318 318 320 322 325 329 331 330 328 328 330 332 331 331 331 332 332 332 332 332 332 333 334 334 334 334 333 333 332 332 332 332 332 332 332 333 333 333 334 335 335 336 337 337 337 337 337 338 338 338 339 339 338 338 339 339 340 340 340 341 341 341 340 341 342 342 342 342 341 341 341 340 339 338 338
324 324 324 323 323 323 323 322 320 320 320 320 319 320 322 324 328 330 329 328 328 329 330 330 329 329 330 331 331 331 331 331 331 331 331 331 331 331 331 331 331 331 330 330 330 330 330 331 331 332 332 333 333 334 334 335 336 335 335 335 336 336 336 336 336 336 336 337 337 337 337 338 339 339 339 340 341 340 340 340 340 340 340 339 338 338 338
322 324 325 324 323 323 323 323 323 323 322 322 323 324 325 327 330 330 329 328 328 329 329 329 329 329 329 329 328 328 328 328 328 328 328 327 327 327 328 328 328 328 329 328 328 328 329 329 330 330 331 332 332 332 331 332 333 334 333 334 334 334 334 334 334 334 334 334 334 334 334 334 335 335 336 337 337 337 337 337 337 337 337 337 336 336 337
318 320 322 323 323 323 323 324 326 326 325 324 325 327 328 330 331 330 329 328 327 327 328 328 328 328 327 327 327 326 326 325 325 325 325 325 325 325 326 326 326 326 326 326 326 327 327 327 327 328 328 329 330 329 330 330 332 332 332 332 332 332 332 332 332 332 332 332 332 332 331 331 331 331 332 332 332 333 333 334 334 334 335 335 335 335 336
316 317 318 319 319 320 320 321 324 326 326 325 326 327 327 328 328 328 328 328 327 327 327 327 327 326 326 325 325 324 324 324 324 324 323 324 323 323 323 323 323 324 324 323 323 324 324 325 325 325 326 326 327 327 327 328 329 330 330 331 331 331 330 330 330 330 331 330 330 329 329 328 328 327 327 327 328 328 329 329 330 331 332 333 333 333 333
314 315 315 315 316 316 316 316 317 320 322 324 326 326 325 325 325 325 325 326 326 326 326 326 326 326 325 324 324 323 323 322 322 322 322 321 321 321 321 321 321 321 321 321 320 320 321 321 322 323 323 323 324 325 324 325 325 326 326 327 327 328 328 329 329 329 329 329 329 328 327 327 326 325 324 324 324 324 325 325 326 327 328 328 329 329 330
314 314 314 314 314 314 314 314 315 315 316 319 321 322 321 321 321 321 321 322 323 323 324 324 323 323 322 322 322 322 321 321 321 320 320 319 319 318 318 318 318 319 319 318 318 317 317 318 319 320 321 321 322 323 322 322 322 322 322 322 323 323 324 325 326 326 326 326 326 326 326 326 324 323 322 321 320 320 320 321 321 321 322 323 324 325 326
313 313 313 313 313 313 313 313 313 314 314 315 316 317 317 316 317 317 317 317 317 318 319 320 320 319 319 318 318 319 318 319 318 318 318 318 318 317 316 316 316 317 317 316 315 315 315 315 316 317 318 319 320 321 321 321 321 321 321 320 320 320 320 321 321 321 321 322 322 323 323 323 323 321 320 320 318 317 317 316 315 315 315 316 318 319 321
313 313 313 312 312 312 312 312 312 312 313 313 313 314 314 314 314 314 314 314 314 315 315 315 316 316 316 316 316 316 316 316 316 315 315 315 315 315 314 314 314 314 314 314 314 313 313 313 314 315 315 316 317 318 319 319 320 320 320 319 319 319 319 318 318 318 318 318 318 318 319 319 320 319 318 318 317 316 315 313 312 311 311 312 313 314 316
313 313 313 313 312 312 311 311 311 311 311 311 311 311 312 312 312 312 313 313 313 313 313 313 313 313 313 313 314 314 314 315 314 314 313 313 312 312 312 312 312 312 313 313 312 312 312 312 312 312 313 314 315 315 316 317 317 317 318 318 318 318 318 317 317 317 317 317 317 316 316 316 316 316 316 315 315 314 313 312 311 310 309 309 309 310 311
313 313 312 312 312 312 312 312 311 311 311 310 310 310 310 311 311 311 312 312 312 312 312 313 313 312 312 312 312 312 311 312 313 313 313 313 312 311 310 310 310 311 311 311 311 311 311 310 309 310 311 312 313 313 313 313 314 314 315 315 315 315 316 315 315 315 315 316 315 315 315 315 314 314 313 313 312 312 312 311 310 309 308 308 307 307 307
313 312 312 312 312 313 312 312 312 311 310 310 311 310 310 310 310 310 310 310 310 311 311 311 311 311 311 312 311 311 310 310 311 311 311 312 312 312 311 310 309 309 309 309 310 310 310 309 309 309 310 311 311 312 312 312 311 312 312 312 312 313 313 313 313 313 313 313 313 314 314 314 313 313 312 312 311 311 310 310 310 309 308 307 307 306 305
311 311 311 312 312 312 311 311 311 312 312 312 312 311 310 309 309 309 308 308 308 309 309 309 309 309 310 310 310 311 310 310 309 309 309 309 309 310 310 310 309 309 308 308 308 308 308 308 308 308 309 310 310 310 311 311 310 310 310 310 310 310 310 310 311 311 311 311 311 311 311 311 311 311 311 311 310 310 309 309 309 308 308 307 306 305 305
310 310 310 310 310 311 311 311 311 311 312 312 311 311 310 309 309 308 308 307 307 307 307 307 307 308 308 309 309 309 309 309 308 308 308 308 308 308 308 308 308 308 308 308 307 307 307 307 307 307 308 309 309 309 309 309 309 309 309 309 308 308 308 309 309 309 309 309 309 309 309 309 309 308 309 309 309 309 308 307 307 307 307 306 306 305 304
310 309 309 309 309 309 310 310 310 310 310 310 310 310 309 309 309 308 308 307 307 306 306 306 306 306 307 307 307 307 307 307 307 307 307 307 307 306 306 306 306 306 307 307 307 306 306 306 307 307 307 307 308 308 308 308 307 307 307 307 307 307 307 307 307 308 308 308 308 308 307 307 307 307 307 306 306 306 306 306 306 306 306 306 306 305 305
309 309 309 309 308 308 308 309 309 309 309 309 309 309 309 308 308 308 307 307 307 306 306 305 305 305 305 305 305 306 306 306 306 306 305 305 305 305 305 305 305 305 305 305 306 306 305 305 306 306 307 306 306 306 306 306 306 306 306 306 306 306 306 306 306 306 306 306 307 307 306 306 306 306 306 306 305 305 305 305 304 304 304 305 305 305 304
307 308 308 308 307 307 307 307 307 307 308 308 308 308 308 307 307 307 307 306 306 306 306 305 305 305 305 305 304 304 304 304 304 304 304 304 303 303 303 303 303 303 303 304 304 304 304 304 305 305 305 305 305 305 305 305 305 305 305 305 305 305 304 304 305 305 305 305 305 305 305 306 306 305 305 306 307 307 306 306 306 305 304 304 304 304 304
305 305 306 306 306 306 306 306 305 305 306 306 306 306 306 305 305 305 305 305 305 305 305 304 304 304 304 303 303 303 303 303 303 303 303 302 302 302 302 301 301 302 302 302 302 302 303 303 303 303 304 304 304 304 304 304 304 304 303 303 304 304 303 303 303 304 304 304 304 304 304 304 304 305 305 305 306 306 306 306 306 306 306 305 305 303 303
Wind_Speed
12 6 7 10 7 9 12 18 24 25 24 26 24 19 15 13 9 7 11 13 9 7 12 12 10 10 8 7 6 7 7 5 5 5 3 1 6 11 11 8 8 9 9 9 10 12 13 16 19 21 21 23 24 25 26 28 30 30 30 31 32 32 32 32 32 32 32 32 32 33 33 33 34 34 33 32 32 31 30 29 28 29 29 29 28 28 28
14 10 8 9 7 7 8 12 18 23 24 25 24 21 19 17 13 8 10 15 14 9 10 12 10 7 4 2 2 3 3 3 4 4 1 4 4 5 9 9 9 8 9 10 10 11 12 13 16 19 20 21 23 24 25 27 28 29 29 30 32 32 32 32 31 30 31 30 29 30 32 33 33 33 32 32 31 32 31 29 28 27 28 28 28 27 27
13 11 9 8 7 6 7 7 10 17 23 24 22 21 20 17 15 12 8 9 12 9 6 5 5 4 2 3 3 3 3 4 4 4 4 4 5 3 2 5 7 9 9 9 10 11 12 13 16 18 19 21 22 24 25 27 28 28 28 29 31 32 32 31 29 29 30 30 29 30 32 32 32 30 30 30 30 31 31 30 28 27 27 28 28 28 28
10 12 11 10 8 7 9 9 10 12 15 17 17 16 15 13 13 12 9 7 7 5 3 2 1 1 4 5 6 6 7 6 6 6 6 5 5 4 3 2 2 7 10 11 11 12 12 14 17 18 19 20 22 23 25 26 26 27 28 29 30 31 31 29 29 29 29 30 30 30 31 32 31 29 29 29 29 29 30 30 29 28 28 29 29 29 29
9 14 14 11 9 8 10 11 12 10 9 11 12 11 11 11 10 8 8 7 6 5 4 6 6 7 7 6 6 6 5 5 6 7 7 6 5 5 3 4 5 5 6 7 9 9 8 11 14 17 20 21 22 23 23 23 25 27 29 30 29 30 30 29 30 30 30 30 31 30 30 31 30 28 28 30 30 30 30 30 30 30 30 30 30 31 30
9 11 10 10 12 11 9 8 10 12 12 12 12 11 12 12 10 8 7 6 5 6 6 8 8 7 5 3 4 4 3 4 6 7 8 7 6 6 5 5 6 5 3 1 3 4 6 8 10 12 16 19 20 21 21 23 25 27 28 28 28 29 30 31 30 30 29 30 31 30 29 29 29 29 30 32 32 31 30 30 31 32 31 30 30 31 31
8 8 8 10 13 11 8 8 10 13 15 15 15 15 14 14 13 13 12 9 7 6 5 4 4 3 3 3 5 6 6 6 7 8 9 8 7 7 5 4 4 4 4 3 3 5 6 7 8 8 11 15 18 19 21 24 26 25 25 26 26 27 29 30 30 29 29 29 28 27 27 28 29 31 31 31 32 30 28 29 30 30 30 30 30 31 31
6 6 8 9 6 4 6 8 6 7 11 16 17 16 16 15 14 13 12 12 10 7 6 4 1 2 4 5 6 7 9 11 11 12 12 11 10 8 5 4 5 5 5 5 6 6 7 7 8 9 11 12 15 19 21 23 25 25 25 25 25 26 28 30 30 30 28 27 27 27 27 28 29 30 30 30 29 28 27 26 27 28 28 29 29 30 31
6 6 8 7 3 2 5 8 6 5 8 11 11 12 13 14 13 9 7 7 6 3 4 4 3 3 5 5 7 10 13 14 12 11 12 11 8 6 6 7 6 6 6 6 6 6 7 9 10 10 11 12 14 17 19 21 23 25 25 26 27 27 26 28 29 28 27 27 27 27 28 29 30 30 29 27 27 27 27 26 27 28 29 29 30 31 32
7 7 9 9 8 7 7 8 8 8 9 8 6 7 8 9 10 8 5 4 5 5 7 7 3 2 4 7 7 7 7 8 8 9 10 9 7 8 9 8 8 8 7 7 7 8 9 11 11 11 11 12 13 15 18 20 22 24 26 27 28 27 26 26 27 27 27 27 26 27 28 28 28 27 27 26 26 27 27 27 27 27 28 29 30 31 32
9 10 10 10 10 7 6 9 12 9 6 5 5 6 7 6 4 4 5 7 7 7 7 5 2 3 7 8 4 4 8 10 10 10 10 11 10 9 9 9 9 9 10 9 10 11 11 11 11 11 11 12 12 14 17 19 20 23 26 26 27 27 26 25 25 26 26 27 27 27 27 26 25 25 25 25 25 26 27 27 27 27 27 28 29 30 31
10 10 9 9 7 2 1 3 8 7 5 5 7 9 6 4 4 3 2 5 3 2 3 3 4 6 7 6 3 8 11 10 9 9 9 10 10 10 10 10 11 11 10 10 9 9 8 7 7 8 8 11 12 13 15 18 20 22 23 23 23 24 25 24 24 25 26 26 27 26 25 25 24 24 25 25 25 26 27 26 26 26 27 27 28 28 29
11 11 10 9 6 2 2 3 6 5 4 6 7 6 3 5 5 4 3 4 3 4 4 3 3 4 6 8 10 12 12 11 9 9 9 9 9 10 9 10 10 11 10 7 7 8 9 8 7 7 7 8 11 12 13 16 18 18 19 20 20 21 23 24 23 24 24 25 25 25 24 25 25 24 25 25 25 26 25 24 25 25 26 26 26 27 27
11 11 9 10 7 1 4 2 5 4 4 5 3 2 6 6 5 4 5 5 6 6 6 5 5 6 9 12 13 13 13 12 11 10 9 9 9 10 9 9 8 9 8 7 7 8 8 8 7 6 7 7 8 9 11 13 14 13 14 17 19 20 21 23 23 23 23 23 24 24 24 24 24 24 24 23 24 24 24 23 24 24 24 24 24 24 25
9 10 11 11 7 3 9 4 2 3 1 0 3 7 8 7 7 7 7 6 7 7 7 7 7 9 11 12 12 12 12 11 11 10 9 8 8 8 8 7 7 8 8 7 7 8 8 9 9 7 6 8 7 7 9 9 10 11 11 14 17 19 20 21 21 21 21 21 21 21 22 22 22 22 22 22 22 22 22 22 22 22 23 24 23 23 24
7 10 9 5 1 5 9 5 2 5 6 5 6 7 7 6 8 8 7 7 9 9 8 8 9 10 11 10 10 10 10 10 10 10 9 7 7 7 7 7 8 8 6 5 6 6 7 8 9 10 5 5 7 6 5 4 4 8 11 11 14 16 17 18 18 18 19 19 19 19 19 20 21 21 21 21 21 21 21 21 20 21 22 23 24 24 24
5 7 5 4 5 5 5 4 4 7 8 7 8 8 7 7 7 8 8 9 11 12 11 9 8 9 10 11 10 10 9 9 9 9 9 9 8 8 7 6 6 6 5 4 5 5 7 7 8 10 7 2 4 3 4 3 0 3 7 9 10 12 13 14 15 16 16 16 17 16 16 17 18 19 19 19 19 19 20 21 20 20 21 22 22 22 22
7 9 9 8 6 4 4 6 7 9 10 9 9 9 8 8 9 9 10 11 13 13 13 11 9 9 10 12 11 10 9 9 9 8 9 8 7 8 7 5 6 6 4 4 4 4 5 6 6 8 8 4 3 4 3 1 2 2 4 6 8 9 10 11 12 13 14 14 15 15 15 15 16 17 17 18 18 18 19 20 20 19 19 19 19 20 21
6 7 8 8 6 4 5 8 9 9 9 9 9 9 9 9 11 11 11 13 15 14 13 12 11 10 10 10 10 9 8 8 8 8 8 7 6 7 6 5 5 6 3 3 4 4 4 5 6 6 6 4 2 1 0 2 3 2 4 6 7 8 8 9 10 11 12 12 13 14 14 14 15 15 16 17 17 17 18 18 18 18 19 18 18 19 20
9 10 11 11 10 10 10 9 9 9 8 8 9 9 9 11 12 12 11 12 13 14 13 13 13 12 9 8 7 8 7 6 6 7 8 7 6 5 4 3 3 4 3 2 3 4 5 6 6 6 6 5 4 2 1 1 1 3 4 5 6 7 7 7 8 9 10 11 11 12 13 14 14 15 15 16 17 17 18 18 17 18 19 19 19 20 20
10 12 14 13 13 13 12 12 12 9 7 8 9 10 11 12 12 13 13 12 11 13 15 14 13 12 10 8 7 7 6 5 5 7 7 6 5 3 2 2 2 2 2 2 4 6 6 6 6 6 6 6 5 5 4 3 2 3 4 4 5 6 6 7 7 7 8 9 9 10 11 12 13 13 14 14 13 14 15 17 18 18 17 17 18 18 18
9 10 11 11 11 10 9 10 11 8 7 9 10 11 11 12 12 14 15 14 13 14 15 15 13 11 9 8 6 6 5 4 4 6 7 5 4 2 0 1 1 2 2 2 4 5 4 4 5 6 6 6 5 5 5 5 4 4 4 4 5 6 5 4 4 5 6 7 8 8 9 10 11 12 12 13 12 10 9 10 12 14 14 14 15 15 15
10 11 11 10 9 9 9 11 13 10 8 10 12 12 12 13 12 13 14 14 14 15 15 16 14 12 9 7 6 5 4 3 2 3 5 3 1 1 2 2 3 4 5 5 5 5 4 4 5 6 7 7 7 6 6 6 5 5 4 4 5 5 5 7 7 4 2 3 3 3 3 4 5 6 8 11 11 9 9 9 10 12 14 16 18 19 20
13 13 13 11 10 11 12 14 15 13 10 11 13 13 13 13 12 12 13 12 13 14 15 15 16 14 11 8 7 5 3 3 3 2 1 2 3 3 4 5 6 6 6 7 7 7 6 6 7 8 8 7 7 7 7 6 7 6 5 4 5 5 6 8 8 7 6 6 5 3 1 1 1 3 4 5 5 4 5 9 12 13 15 17 19 20 21
13 13 13 12 12 13 13 14 15 14 12 12 13 14 14 13 12 12 13 12 12 13 14 15 17 16 13 10 8 7 5 3 3 4 5 3 2 2 4 5 7 7 8 8 9 9 9 9 9 9 9 8 8 8 8 8 8 7 7 8 8 8 7 8 8 7 6 6 5 4 3 3 2 0 1 2 1 0 1 4 8 10 10 12 12 13 15
13 13 13 14 14 14 13 13 14 15 14 14 14 14 14 13 13 13 13 13 12 12 14 14 14 15 14 11 8 6 5 5 4 5 6 5 5 4 4 5 7 8 9 10 10 10 11 10 10 10 10 10 9 8 9 9 9 9 9 11 11 11 10 8 8 7 7 7 6 5 5 4 3 3 3 3 3 3 2 4 5 6 8 8 9 11 13
13 13 13 15 15 16 16 16 16 15 15 15 15 15 13 12 12 13 13 13 12 13 16 17 14 12 12 10 7 6 6 6 5 5 6 7 7 6 7 8 9 9 10 11 11 11 11 11 10 10 10 10 9 8 8 9 9 10 9 9 10 11 11 9 8 8 8 7 6 6 6 5 4 4 4 4 3 3 3 4 4 6 7 7 8 11 14
15 15 15 15 16 16 17 18 18 17 16 16 16 15 13 12 12 12 12 13 11 11 16 18 14 10 9 8 8 7 7 7 6 5 6 6 8 9 10 11 11 11 11 12 11 11 11 11 11 11 11 10 10 9 9 9 10 11 10 9 9 9 9 9 8 7 8 8 7 6 6 5 5 5 4 4 4 3 3 4 5 6 6 6 8 10 11
17 16 16 16 17 17 17 17 18 18 18 17 16 15 14 13 13 11 11 12 10 10 13 14 10 9 9 8 7 7 7 8 7 6 6 7 7 9 11 12 12 12 12 13 12 12 12 11 11 11 11 11 11 11 10 10 10 11 11 11 10 9 8 8 8 7 7 7 6 5 5 5 5 5 4 4 4 4 5 5 6 7 7 8 9 9 9
18 17 16 15 15 16 18 19 19 19 20 19 18 16 16 15 13 11 12 12 10 10 12 9 5 7 10 6 4 6 7 9 9 8 8 9 9 9 11 12 11 11 11 12 12 12 12 12 11 11 11 11 12 12 11 10 9 9 10 11 11 10 9 8 7 6 6 6 5 5 5 5 5 5 5 5 5 6 6 7 8 8 8 9 9 10 12
20 19 20 20 17 18 19 19 19 20 20 19 19 18 17 15 14 12 12 11 10 11 12 8 5 6 7 4 3 7 9 11 11 11 11 12 12 13 14 13 11 10 11 12 13 13 13 12 12 12 11 10 10 10 11 10 9 8 9 10 11 10 9 7 6 6 6 6 6 5 5 5 5 5 6 7 7 7 7 7 8 8 9 9 10 12 14
21 22 24 23 20 20 19 17 17 20 21 20 19 18 16 14 14 13 11 11 10 10 10 8 5 5 4 3 5 8 10 11 12 12 13 14 14 15 15 15 15 14 14 14 14 14 14 14 12 12 13 12 10 11 11 11 10 10 10 9 9 9 10 10 8 5 5 7 7 7 8 7 6 7 7 8 8 8 8 8 7 7 8 9 10 12 13
18 19 20 20 18 19 21 19 18 20 21 19 17 16 13 13 13 11 11 10 9 8 8 7 5 5 3 4 6 8 9 10 11 12 13 15 16 15 15 16 16 17 16 16 15 15 15 14 13 11 12 14 14 13 13 11 10 10 10 9 9 9 10 13 13 9 8 9 10 9 8 8 7 7 7 7 7 8 8 9 9 8 8 9 10 10 11
18 18 19 18 17 18 20 20 19 18 18 17 16 15 13 12 12 11 10 8 6 5 6 7 7 7 5 4 5 7 9 8 7 9 12 14 16 16 16 16 17 17 17 16 16 15 15 16 14 12 12 13 13 13 12 10 9 9 9 8 10 10 9 11 12 12 10 10 10 9 9 9 9 8 8 7 7 8 8 9 10 9 8 8 8 7 9
16 19 19 17 16 16 16 17 17 17 16 16 16 15 13 12 12 11 9 7 6 7 8 9 10 9 9 9 7 7 8 8 8 10 14 16 16 16 16 16 17 18 19 19 19 18 17 17 16 14 13 14 13 13 14 11 8 9 8 8 9 10 10 10 11 11 11 10 10 10 10 10 10 10 10 10 9 8 8 8 9 10 9 8 8 7 8
7 12 12 10 10 10 10 11 14 16 15 14 14 13 12 12 13 12 11 10 8 9 9 12 13 11 11 11 10 9 10 10 12 14 16 17 17 17 17 17 17 18 19 19 20 18 17 17 18 16 15 15 15 17 19 16 10 9 10 10 10 11 12 12 12 11 11 11 11 11 11 11 11 12 12 12 11 10 9 9 9 10 9 8 8 9 9
11 4 2 1 2 4 6 7 9 11 11 10 9 10 11 11 11 12 13 11 10 10 12 14 14 13 14 14 14 14 14 14 15 17 17 18 19 19 20 20 19 18 16 15 17 18 17 18 19 18 17 16 16 19 22 20 15 13 14 14 14 14 14 13 12 12 12 13 13 13 14 14 14 14 14 14 14 13 13 11 11 11 10 10 10 10 10
20 15 10 9 8 6 4 4 5 6 8 6 5 6 8 8 7 11 14 15 13 14 15 15 16 18 19 18 18 18 18 18 18 19 19 19 20 21 21 20 19 18 16 15 17 19 18 18 18 18 18 17 16 18 21 20 17 15 15 15 14 14 13 12 12 12 13 14 15 16 16 16 15 15 15 16 16 16 15 14 13 13 12 11 11 10 10
22 20 18 16 14 13 13 12 10 7 7 8 9 12 15 17 15 13 14 17 18 18 17 16 17 18 19 19 18 18 19 20 21 20 20 19 20 22 24 23 22 21 19 19 20 21 21 20 20 20 20 19 17 18 19 19 17 16 16 15 14 14 13 13 14 15 15 16 16 16 16 16 16 16 16 16 16 16 16 15 15 14 14 13 12 12 12
20 19 20 19 17 16 15 13 13 16 17 13 13 17 19 20 20 18 15 16 20 21 19 18 17 17 17 17 18 18 19 20 20 20 19 20 21 21 21 21 23 23 22 22 23 24 25 25 23 21 21 21 19 18 18 19 18 17 16 16 15 14 14 15 16 17 16 16 17 17 17 17 16 16 16 16 16 17 17 17 17 17 17 16 15 15 14
19 18 20 19 17 16 15 15 17 22 23 21 20 24 25 25 24 20 15 17 23 25 23 21 21 19 19 19 20 21 21 20 20 20 20 19 19 16 13 15 20 23 23 24 25 25 27 28 26 23 22 21 20 19 19 19 19 19 18 18 18 17 17 17 18 17 17 16 16 17 17 16 16 16 17 17 18 18 19 19 20 21 20 20 19 17 15
20 20 21 20 17 15 17 19 21 21 22 24 27 31 32 33 31 25 22 25 30 29 26 24 24 23 22 22 22 22 22 22 22 23 22 21 20 16 12 14 20 23 23 24 26 27 26 27 27 25 23 22 21 20 20 19 19 19 19 19 20 20 19 19 19 18 18 18 18 17 17 16 16 17 18 18 19 20 21 21 22 23 23 24 24 23 21
21 21 19 17 17 19 21 23 22 19 20 25 29 31 33 34 33 30 29 31 32 29 27 27 27 26 25 23 20 19 19 19 20 22 23 24 25 23 19 18 21 22 22 23 25 26 26 25 25 25 24 23 22 21 20 20 20 20 20 20 20 20 20 20 20 19 19 19 19 19 18 18 17 17 18 18 19 20 21 21 22 24 25 26 26 26 26
22 21 18 17 19 21 23 23 22 20 20 25 32 34 35 35 35 33 31 31 31 30 28 27 25 25 26 25 21 19 18 18 18 18 18 19 22 24 24 22 22 22 23 22 23 24 25 26 26 25 25 23 22 22 21 21 21 20 20 20 20 19 19 20 20 19 19 19 18 18 19 19 18 18 19 18 18 19 19 20 21 23 25 27 28 28 28
22 22 23 22 22 21 20 20 21 21 23 27 32 35 34 32 32 32 31 30 29 29 28 25 23 23 23 22 22 22 22 22 21 19 16 14 14 18 21 23 23 23 23 22 22 22 24 26 27 26 25 23 22 21 21 21 20 20 20 19 19 19 19 19 19 19 18 18 17 17 17 17 18 18 18 18 19 19 19 19 19 20 21 23 25 27 30
21 22 23 22 21 20 21 23 24 26 27 26 25 25 28 28 28 28 28 28 26 25 25 25 24 23 21 20 19 20 21 22 22 22 20 18 17 17 19 20 21 23 24 23 22 22 23 25 26 26 24 22 21 20 20 19 19 19 19 19 19 19 18 18 18 18 18 18 18 18 18 17 17 17 17 17 18 18 18 18 19 19 20 21 21 24 27
19 20 20 20 20 21 24 25 25 25 22 18 14 16 21 25 25 24 25 25 24 24 24 24 24 24 23 22 20 18 18 18 19 19 20 20 19 18 19 18 18 19 21 22 22 22 22 23 24 24 23 21 20 19 18 18 18 18 18 19 19 18 18 18 18 18 18 18 18 18 18 18 18 17 17 17 18 18 18 18 18 18 19 20 21 23 26
19 18 19 21 22 22 23 23 21 18 15 14 13 15 18 20 21 22 22 23 23 23 23 22 22 22 23 23 23 21 19 17 15 15 16 17 17 17 18 19 18 17 17 18 19 21 22 22 22 22 20 19 18 18 18 18 18 18 18 18 18 18 19 18 18 18 18 18 18 18 18 18 18 17 17 18 18 18 18 19 19 18 18 18 19 21 23
19 19 20 21 21 21 20 19 17 15 14 15 16 16 16 17 18 18 19 19 19 19 19 19 20 20 21 21 21 21 20 18 16 15 16 17 16 16 16 17 18 17 15 14 15 17 19 20 20 19 18 18 17 17 17 17 17 17 17 17 18 18 18 18 18 17 17 17 17 18 17 17 17 17 18 18 19 19 19 19 19 19 18 17 17 18 19
18 18 18 19 19 18 18 16 15 15 15 16 16 15 15 15 15 15 15 15 16 16 16 17 17 17 17 18 18 18 18 18 17 16 16 16 16 15 15 15 15 15 14 13 13 14 16 17 17 16 16 16 16 16 16 16 16 16 16 16 17 17 17 16 16 16 16 16 16 16 15 15 15 15 14 14 15 17 18 19 19 20 20 19 18 19 19
17 16 15 15 16 17 17 17 16 16 16 16 15 15 15 15 15 15 15 15 14 14 14 15 15 15 15 15 15 16 16 16 16 15 15 14 14 14 14 13 13 13 13 13 12 13 13 15 16 16 15 15 15 15 15 15 15 15 15 15 16 16 17 16 16 16 15 14 14 14 14 13 13 13 12 12 13 15 16 15 16 17 19 19 19 19 19
15 15 15 14 14 15 16 16 17 17 17 17 16 15 15 15 14 15 15 15 14 13 12 12 13 14 14 14 14 14 14 14 14 14 14 13 13 12 12 12 12 12 12 12 12 12 12 13 14 15 15 14 14 14 13 14 14 14 14 14 14 15 16 16 16 15 14 13 13 13 13 13 14 14 14 15 17 17 16 15 14 14 15 16 17 18 19
Wind_Direction
240 254 305 312 275 241 234 220 208 202 202 205 208 213 207 198 210 202 185 203 214 153 152 168 157 137 136 143 128 96 93 111 111 101 95 204 175 155 153 168 180 184 189 186 184 187 191 196 197 199 203 204 204 206 205 204 205 205 201 199 199 198 197 198 199 199 199 199 199 201 202 204 206 208 208 209 210 210 209 208 208 209 210 208 206 205 206
234 233 251 283 287 276 263 236 217 206 204 205 206 210 209 203 213 214 180 192 206 184 158 158 142 133 158 155 66 42 58 50 23 22 338 278 260 148 140 159 174 178 186 188 187 190 194 197 199 200 202 203 204 205 205 205 206 206 201 198 198 199 199 200 198 196 197 198 198 199 201 204 205 206 207 207 207 208 209 209 208 207 209 210 209 207 207
234 225 226 254 273 267 261 263 247 221 207 203 204 207 207 204 206 204 171 174 200 202 184 152 102 74 357 354 356 333 335 336 326 305 277 285 313 346 112 160 167 167 179 189 191 194 197 199 201 203 203 203 205 205 205 205 206 206 203 199 198 200 202 200 196 194 194 195 196 197 199 202 203 203 203 204 205 207 208 208 208 207 208 210 211 210 209
235 221 217 228 241 258 265 258 246 227 210 202 203 205 206 205 203 196 183 179 190 189 204 254 302 271 267 282 285 285 293 295 294 296 295 298 303 301 301 301 197 173 179 188 193 200 204 202 202 205 204 204 205 207 206 204 203 204 205 203 200 200 202 200 195 194 192 192 194 195 196 199 200 200 200 201 203 205 206 206 206 207 208 209 210 212 211
232 219 212 218 229 245 251 234 217 215 217 212 208 206 210 213 210 203 198 199 197 190 213 239 246 249 254 262 275 280 282 292 304 302 295 291 292 295 306 303 277 235 203 191 192 203 212 208 208 207 205 205 206 207 207 204 202 203 205 205 201 198 200 200 197 195 192 191 193 194 194 196 197 196 197 200 202 204 204 204 205 206 207 207 209 211 212
221 206 199 214 224 225 223 216 213 217 220 220 218 215 216 217 219 225 222 215 213 212 225 234 234 242 254 267 297 305 298 300 303 297 295 297 299 305 308 294 284 293 318 294 227 246 251 242 237 223 210 208 208 206 205 204 204 204 205 205 202 197 198 200 199 196 193 192 193 193 192 192 193 195 198 201 203 203 203 203 204 206 208 207 208 210 212
218 170 161 208 224 229 226 216 225 232 226 224 229 231 228 223 220 226 231 230 227 226 237 238 223 236 270 288 297 299 304 308 304 297 297 298 291 288 292 309 337 359 355 331 298 286 281 273 269 251 226 214 207 205 206 205 206 204 203 205 202 197 196 200 199 197 195 194 193 192 191 191 192 196 199 201 202 203 204 205 205 207 208 208 209 211 212
244 184 179 205 224 256 231 205 217 251 233 220 222 228 231 229 226 226 227 228 226 222 224 225 237 279 278 281 287 289 294 293 289 286 285 280 281 290 306 337 359 1 339 315 302 293 290 284 272 258 245 227 211 207 206 205 205 204 202 204 204 199 197 199 199 198 195 193 192 192 192 193 195 198 200 200 201 201 204 207 208 207 209 212 213 214 214
250 224 203 197 175 175 199 189 195 233 229 220 224 230 226 224 229 234 229 229 228 214 221 241 273 294 285 282 281 280 281 280 280 289 290 281 283 321 351 350 344 338 324 310 302 290 279 272 266 259 253 241 223 212 207 204 203 203 202 204 205 202 198 198 200 199 196 194 194 194 194 195 198 199 200 200 199 200 203 207 209 209 211 215 218 219 218
230 230 218 209 208 209 199 185 188 209 221 215 221 242 231 215 217 219 215 233 252 259 262 265 283 308 282 275 276 286 308 322 337 347 344 343 357 13 5 346 336 336 335 330 319 302 285 274 267 260 254 248 232 216 209 205 202 202 204 205 205 204 201 198 199 199 198 197 196 196 197 199 200 199 199 200 200 201 204 208 211 213 213 216 218 219 220
218 220 223 219 220 222 207 185 179 186 199 178 175 217 222 196 174 187 219 241 248 254 265 269 259 253 254 254 269 10 12 2 1 2 2 2 4 1 345 333 338 341 337 329 312 292 280 273 265 256 251 247 236 219 211 208 203 203 207 207 205 205 202 199 199 200 200 200 200 200 200 200 201 200 200 202 202 203 207 210 212 215 215 217 219 218 220
219 221 224 222 220 236 353 164 160 156 156 161 183 196 179 112 68 67 252 255 253 276 295 281 243 242 248 257 321 1 350 342 354 2 357 352 348 341 333 338 346 337 320 315 308 301 308 310 291 271 251 240 234 221 211 211 209 207 208 207 205 205 203 201 200 200 201 203 202 202 202 201 202 202 202 204 205 205 209 211 213 216 217 219 221 221 221
222 223 225 223 212 159 85 115 117 117 144 169 190 189 95 32 9 17 359 330 354 4 343 318 275 274 296 307 323 335 328 327 342 346 342 339 333 326 328 340 343 326 312 319 323 321 336 339 309 285 264 242 233 221 212 216 218 213 207 204 203 203 203 203 203 201 202 203 201 201 202 201 203 205 204 206 207 207 209 212 213 216 218 220 224 224 224
221 218 222 226 217 122 37 91 120 124 173 173 175 324 340 327 318 354 356 344 357 359 350 346 329 318 319 316 319 324 322 324 328 325 328 331 324 321 324 331 335 328 325 339 337 330 338 335 309 279 252 236 231 220 213 219 225 220 208 201 202 203 203 204 206 204 202 201 199 200 202 202 203 206 207 208 209 208 211 213 214 215 217 220 224 226 227
223 219 219 221 214 36 18 12 117 91 43 88 4 341 335 332 339 347 340 339 356 355 347 347 336 320 315 314 316 319 319 321 320 318 322 323 317 316 314 317 338 340 333 337 338 336 341 341 336 318 258 219 215 216 211 215 224 225 215 203 201 204 206 205 207 206 203 201 199 199 201 201 202 204 206 208 209 209 211 213 214 217 219 222 226 229 230
216 216 211 215 267 14 6 351 39 40 23 13 354 338 336 345 351 350 342 340 346 346 342 340 332 318 313 315 317 314 313 316 318 318 322 323 322 320 314 325 344 337 326 338 343 345 356 357 351 344 319 204 191 197 188 182 219 223 218 207 199 201 205 204 206 207 204 201 201 200 199 199 200 202 204 206 208 208 210 214 219 222 224 226 228 232 235
268 254 258 330 350 348 343 343 12 15 358 342 341 339 337 341 349 353 346 335 335 339 336 331 326 319 316 319 319 313 310 312 314 315 317 318 319 313 306 320 331 315 312 343 343 346 8 15 10 5 9 112 153 119 95 88 106 207 199 196 193 194 198 200 203 205 202 199 200 200 199 198 200 203 204 206 208 209 212 218 223 226 229 230 229 233 238
294 285 275 278 288 296 313 322 340 347 333 323 331 337 337 341 343 344 342 335 331 333 331 326 325 323 323 322 319 315 314 312 310 309 307 306 311 309 307 322 327 310 315 359 356 351 6 19 31 29 29 56 87 55 54 178 215 191 178 182 184 189 192 194 198 200 200 198 199 201 202 201 203 207 209 210 212 214 218 222 224 227 233 235 234 236 239
276 276 264 258 264 289 320 320 316 309 302 311 328 332 334 341 340 337 338 335 329 327 325 323 321 320 323 324 320 317 316 314 313 311 304 302 307 307 312 332 332 318 330 22 24 21 27 31 40 47 47 54 71 68 165 200 194 184 188 187 185 188 190 190 192 196 198 199 199 202 205 206 208 210 212 214 216 217 219 223 224 227 232 236 238 240 242
248 257 265 276 287 293 298 296 288 285 295 317 330 329 330 333 330 328 333 334 330 325 319 316 314 313 315 318 312 308 309 308 306 302 298 299 299 297 312 335 332 335 1 44 55 56 56 50 48 58 63 59 63 78 80 99 147 156 171 180 181 181 179 178 182 188 194 197 199 204 207 209 211 211 209 212 215 217 220 223 226 229 231 232 236 240 244
250 250 257 270 282 284 279 270 267 280 315 331 326 321 321 321 321 323 327 328 327 324 319 314 310 307 307 310 302 298 305 309 306 305 302 295 286 286 338 13 11 13 25 56 74 68 64 63 64 67 67 63 61 65 69 77 105 126 138 152 162 165 169 174 174 177 188 193 197 208 212 212 216 219 219 222 224 224 223 222 225 234 240 240 241 245 248
248 244 245 253 265 271 272 275 280 298 330 328 317 316 316 315 318 321 322 322 323 321 318 315 306 295 297 301 292 284 291 294 304 316 313 295 269 253 194 85 89 99 95 85 83 81 79 85 87 81 76 74 69 64 65 68 80 104 124 138 147 148 142 133 143 167 188 189 191 208 219 217 217 223 230 238 247 258 255 236 232 243 255 261 265 274 279
252 253 251 250 258 273 287 294 296 302 314 310 304 303 304 306 310 312 314 320 320 315 313 313 304 289 279 278 272 267 267 251 255 321 327 323 4 107 125 122 126 137 138 119 101 94 87 86 89 84 78 75 73 71 69 68 74 91 109 126 136 128 93 66 65 83 123 121 129 181 226 236 238 244 242 234 236 258 285 293 286 279 280 281 278 281 288
266 267 263 260 261 267 275 282 285 288 296 298 295 294 294 296 301 303 304 307 308 304 305 307 300 282 261 249 246 234 218 208 191 147 61 27 38 69 96 98 97 106 112 110 106 99 88 81 82 80 75 69 66 68 72 75 80 81 83 101 115 108 93 78 65 59 60 63 66 67 41 14 320 295 285 250 219 221 270 296 299 293 290 290 286 283 287
258 263 267 271 272 271 273 277 277 278 282 285 284 285 286 288 291 294 294 293 295 297 299 300 295 279 258 242 234 218 192 168 160 153 141 122 97 100 105 97 89 85 84 88 92 92 88 83 75 72 73 71 69 69 70 72 75 69 56 58 72 78 84 89 85 78 79 82 83 84 78 67 78 102 308 312 310 157 279 304 309 309 310 312 313 310 305
257 261 263 263 263 262 263 264 262 263 266 269 270 272 275 279 283 285 286 287 291 294 291 290 288 277 263 247 230 209 171 136 148 172 165 155 150 140 121 104 94 87 83 81 79 77 78 75 65 58 59 59 62 70 73 73 74 72 64 62 64 64 64 72 79 77 76 78 78 78 77 69 56 58 59 38 18 14 1 336 327 333 339 341 338 332 323
260 256 257 257 255 251 250 252 256 260 262 264 267 269 271 276 278 279 280 280 282 286 284 279 275 270 258 237 207 179 146 129 140 158 152 144 140 131 116 107 105 101 93 86 83 81 80 78 73 65 58 51 52 61 70 71 65 61 65 74 76 68 60 61 70 71 67 66 64 62 64 63 56 54 54 45 31 16 359 346 338 332 336 341 338 332 328
266 258 254 255 256 255 254 255 259 262 264 264 264 266 270 273 271 271 274 274 273 278 278 273 268 264 251 223 192 171 149 133 122 114 113 118 123 121 111 101 99 98 92 87 85 81 76 72 72 73 69 59 53 51 53 55 54 52 53 59 64 63 58 57 62 66 64 60 60 61 59 55 53 55 51 40 32 15 355 352 348 339 336 339 339 336 335
264 260 255 253 256 260 261 258 256 257 259 259 257 259 263 264 263 265 270 270 267 267 267 265 263 265 255 227 191 170 151 130 113 98 87 85 99 112 110 100 92 85 81 79 76 72 68 63 61 67 70 64 55 50 48 49 51 54 53 47 42 42 45 46 50 61 66 62 58 59 60 56 51 49 43 34 24 9 0 6 5 353 348 349 345 343 349
259 259 257 256 258 259 257 254 252 251 251 250 250 253 255 254 256 261 264 262 257 255 258 256 249 258 263 249 185 158 137 118 112 109 99 84 77 81 89 96 96 88 78 76 74 72 71 66 58 58 63 62 56 52 51 54 58 61 64 63 59 52 43 39 45 54 58 59 58 54 55 57 54 47 38 29 21 11 7 11 12 6 360 360 1 2 359
258 257 257 258 259 258 256 253 250 249 248 247 248 249 247 244 245 250 253 254 250 247 251 247 213 221 252 257 142 134 123 111 106 103 98 90 78 72 73 79 84 80 74 72 70 69 68 64 56 47 45 53 62 60 53 51 56 62 67 72 70 59 41 34 49 61 54 50 51 46 42 45 44 39 35 26 16 9 6 8 14 13 6 6 14 15 4
254 253 254 254 253 251 250 248 246 245 242 240 241 242 238 235 238 239 240 241 239 237 242 239 201 189 215 196 128 113 107 107 108 105 102 96 89 82 81 80 77 75 73 68 63 61 60 58 53 40 29 30 50 65 60 51 48 52 57 59 58 52 34 20 23 46 57 47 41 33 25 20 16 17 19 14 4 358 357 357 2 11 14 16 20 16 7
249 250 249 247 244 240 238 235 236 236 235 233 233 232 228 227 232 233 228 225 226 231 233 218 178 157 175 173 141 122 112 112 114 111 106 101 94 88 85 82 76 73 71 66 60 59 55 45 43 46 38 29 34 45 51 54 54 52 53 56 56 56 44 25 20 31 47 43 38 32 22 13 10 10 6 359 354 353 350 347 346 352 6 16 16 11 8
237 242 245 245 243 240 233 227 224 225 225 225 224 222 221 222 224 222 213 201 201 221 218 189 161 141 118 98 115 130 127 120 117 112 103 99 96 92 87 84 79 75 72 67 61 59 47 29 27 46 54 43 38 35 32 42 61 60 56 62 61 57 53 41 34 37 41 36 31 30 22 15 15 12 358 349 352 354 350 349 345 338 341 360 10 4 359
238 241 246 248 246 239 228 219 216 217 218 218 216 215 217 220 216 206 183 159 171 205 197 165 146 135 111 86 83 103 107 97 97 99 93 89 90 89 87 86 82 77 73 66 58 58 50 33 30 47 57 54 53 39 19 21 54 64 57 64 65 57 56 55 47 42 41 35 32 31 23 14 16 15 2 351 350 351 352 356 352 340 337 357 11 359 346
276 246 242 243 242 238 230 221 215 212 210 210 210 209 211 211 202 181 154 147 178 195 169 140 133 130 113 96 88 88 86 82 84 84 82 82 85 85 83 82 79 76 73 62 52 54 55 42 36 49 59 56 51 37 25 27 52 64 52 52 59 58 57 55 48 44 43 40 38 36 28 19 20 20 10 359 357 358 357 358 357 350 345 350 352 345 341
18 356 276 231 193 202 212 211 205 200 199 204 208 203 197 196 184 158 142 149 171 168 143 131 129 123 111 104 98 90 83 81 81 79 79 83 84 79 75 72 70 70 68 57 48 52 56 45 39 48 59 56 47 37 32 36 48 52 46 47 52 54 55 52 46 44 45 44 42 41 37 31 28 25 18 11 8 7 4 2 1 358 354 350 347 343 341
26 26 30 40 54 72 91 110 136 159 167 172 175 158 142 132 131 136 138 140 141 136 127 121 116 110 106 103 98 91 88 87 85 81 78 76 74 69 65 61 59 59 58 52 48 49 49 44 42 47 52 52 50 43 38 40 48 53 52 52 54 54 55 55 52 50 50 47 44 42 41 38 35 31 27 21 16 13 11 8 4 359 358 1 360 356 351
26 26 30 32 35 41 45 46 48 64 95 117 120 110 99 90 85 93 110 116 115 115 113 109 105 104 104 102 98 94 91 89 86 82 77 71 67 66 63 58 54 53 53 50 48 45 40 39 42 44 44 45 49 46 41 43 51 57 58 59 61 61 60 61 60 58 54 52 50 47 44 42 38 35 32 28 22 19 18 15 8 1 2 8 10 7 5
27 30 34 33 33 37 38 38 39 40 41 55 85 95 93 88 81 72 72 89 100 103 102 100 99 98 98 100 99 95 91 87 83 79 75 68 63 63 60 52 46 46 47 47 46 42 38 36 38 40 39 41 44 45 45 47 51 54 54 55 58 58 56 56 56 55 53 52 51 51 50 47 43 40 38 35 30 26 25 24 21 15 13 14 13 11 11
21 26 34 35 35 37 39 43 49 45 37 40 60 73 73 73 74 68 60 69 79 81 81 85 89 88 85 85 84 82 80 79 76 73 70 65 61 60 58 48 43 43 45 45 43 41 38 36 34 35 36 38 40 44 49 51 53 55 54 53 53 52 51 51 52 51 49 47 47 48 49 48 45 42 40 38 36 32 30 30 29 26 23 21 18 14 16
20 24 31 32 30 33 41 46 51 51 44 43 54 63 66 66 68 69 64 62 64 65 64 67 72 76 76 76 76 75 74 72 70 68 66 64 62 62 62 55 48 47 47 47 44 40 39 36 33 32 33 36 38 43 49 52 52 52 53 53 52 51 50 49 50 50 49 48 47 46 46 47 46 43 40 40 39 37 34 34 33 31 29 27 24 23 23
26 28 32 32 26 26 34 39 42 45 46 45 49 57 64 65 64 63 61 59 59 59 57 56 59 62 63 65 67 70 70 69 68 68 67 65 62 61 61 58 53 49 49 49 47 43 40 36 33 33 36 39 40 42 47 50 50 49 50 51 51 50 50 49 49 49 49 49 48 47 45 45 46 45 42 42 42 40 38 38 36 35 35 33 29 28 28
29 29 32 36 35 33 35 36 36 38 41 41 43 47 53 56 55 54 54 54 54 52 51 50 52 56 57 56 56 57 58 58 60 64 67 67 62 58 56 55 53 50 49 50 50 46 41 37 36 38 41 44 45 46 47 48 47 47 47 49 50 50 50 49 48 48 48 48 49 50 49 48 48 47 46 46 46 43 42 40 38 38 39 37 34 32 31
30 30 31 34 38 39 40 41 42 43 44 45 45 46 49 51 53 53 53 53 52 50 47 45 45 49 54 58 61 62 62 60 58 58 61 64 62 56 54 54 52 49 47 48 49 47 41 39 40 43 43 44 48 50 50 49 48 47 46 47 48 49 51 50 49 49 48 48 47 48 49 50 51 49 49 50 50 48 47 45 43 40 39 38 37 37 37
30 30 31 33 37 41 44 46 47 47 47 47 47 47 48 51 54 56 57 56 55 52 49 47 45 44 47 53 60 66 69 68 64 61 61 63 63 60 58 59 58 55 51 48 47 44 39 37 40 42 43 44 49 52 52 51 51 49 47 46 46 46 49 50 50 49 49 48 48 47 46 47 49 50 49 50 51 51 49 49 49 48 45 43 41 41 40
32 30 29 30 34 39 42 44 45 45 45 45 45 44 46 49 53 55 57 59 58 55 52 51 49 47 46 48 50 54 60 64 63 60 60 62 62 58 54 53 56 60 60 55 49 45 41 39 39 40 42 45 49 51 51 51 52 52 50 49 47 46 46 47 48 49 49 48 48 49 47 46 45 46 46 46 47 47 45 44 44 46 48 48 47 46 44
35 36 34 34 35 37 39 42 44 44 44 46 46 45 46 51 54 54 54 57 58 56 53 52 50 49 50 51 51 51 54 58 58 54 53 57 59 56 51 45 42 46 55 58 53 47 43 41 41 41 42 45 49 51 50 50 50 50 50 50 49 47 45 44 44 46 48 47 46 46 47 46 44 44 44 44 44 45 45 44 41 38 40 43 46 47 49
34 38 39 38 38 37 38 41 44 46 47 50 50 47 47 52 56 56 55 55 57 57 55 53 51 50 51 53 54 54 55 58 59 56 52 52 53 52 49 45 41 39 43 50 52 48 43 40 40 43 46 46 47 49 51 51 51 51 51 50 48 47 46 46 44 44 45 46 46 46 45 45 45 45 44 45 44 42 42 42 41 38 36 37 39 42 45
31 36 40 41 40 39 40 41 42 43 46 50 51 51 51 53 55 56 57 59 60 61 59 57 55 54 53 54 56 56 55 56 57 56 53 51 49 47 45 44 42 41 40 42 46 48 46 41 39 42 47 50 49 48 49 49 48 47 48 49 48 44 41 42 45 45 43 43 45 45 43 43 45 46 47 51 53 50 45 41 39 37 35 34 34 35 37
32 32 37 43 46 46 47 48 46 43 43 45 49 51 53 55 56 56 56 58 60 62 60 56 53 52 52 53 54 55 54 53 53 52 50 48 47 45 44 42 41 41 42 42 43 45 48 46 42 40 43 48 50 50 50 50 49 45 43 45 46 42 35 32 35 39 40 38 39 41 40 38 38 37 34 36 43 46 43 38 35 34 33 31 30 30 31
43 38 34 38 45 47 48 50 51 48 45 44 46 49 53 55 55 52 49 49 52 57 61 59 54 48 46 46 48 50 50 50 49 48 46 44 43 41 41 42 42 41 42 44 44 44 45 48 47 43 41 43 45 45 46 49 49 46 42 41 42 43 40 34 30 32 34 33 33 35 35 32 31 32 30 27 30 32 31 27 25 25 25 25 25 26 27